Regional Weather Roundup
Issued by NWS

Home | Current Version | Previous Version | Text Only | Print | Product List | Glossary Off
Versions: 1 2 3 4 5 6 7 8 9 10 11 12 13 14 15 16 17 18 19 20 21 22 23 24 25 26 27 28 29 30 31 32 33 34 35 36 37 38 39 40 41 42 43 44 45 46 47 48 49 50

000
ASUS43 KLSX 010907
RWRMO

WEATHER SUMMARY FOR MISSOURI
NATIONAL WEATHER SERVICE SPRINGFIELD MO
400 AM CDT SAT NOV 01 2014

NOTE: "FAIR" INDICATES FEW OR NO CLOUDS BELOW 12,000 FEET WITH NO
       SIGNIFICANT WEATHER AND/OR OBSTRUCTIONS TO VISIBILITY.
       CURRENT SKY AND/OR WEATHER CONDITIONS ARE NOT AVAILABLE FOR
       CHILLICOTHE AND FARMINGTON.

MOZ001>031-035>038-043-044-053-054-011000-
...NORTHERN AND WESTERN MISSOURI...

CITY           SKY/WX    TMP DP  RH WIND       PRES   REMARKS
KANSAS CTY INT PTCLDY    31  20  63 CALM      30.47S
KANSAS C DTWN  CLEAR     33  19  56 CALM      30.48S
LEE`S SUMMIT   CLEAR     31  20  63 E5        30.47R WCI  26
ST JOSEPH      PTCLDY    21  17  84 NW3       30.48F
CHILLICOTHE      N/A     29  20  69 NE5       30.49S WCI  24
KIRKSVILLE     CLEAR     27  20  75 N3        30.47S

$$
MOZ066>068-077>081-088>096-101>105-011000-
...SOUTHWEST MISSOURI...

CITY           SKY/WX    TMP DP  RH WIND       PRES   REMARKS
SPRINGFIELD    CLEAR     26  19  74 CALM      30.41S
JOPLIN         CLEAR     25  22  88 CALM      30.46R

$$
MOZ032>034-039>042-045>050-055>058-069>072-011000-
...CENTRAL MISSOURI...

CITY           SKY/WX    TMP DP  RH WIND       PRES   REMARKS
COLUMBIA       CLEAR     27  21  78 N5        30.44S WCI  22
JEFFERSON CITY CLEAR     30  23  75 N5        30.46S WCI  25
ROLLA          CLEAR     26  20  77 NW3       30.40S
SEDALIA        CLEAR     30  21  69 N5        30.47S WCI  25
WHITEMAN AFB   CLEAR     27  20  74 NE2       30.45F
WARRENSBURG    CLEAR     28  21  74 CALM      30.46S
OSAGE BEACH    CLEAR     28  21  74 N3        30.43S

$$
MOZ051-052-059>065-011000-
...EAST CENTRAL MISSOURI...

CITY           SKY/WX    TMP DP  RH WIND       PRES   REMARKS
ST LOUIS INTL  CLEAR     33  21  61 N9        30.41S WCI  25
SPIRIT OF STL  CLEAR     29  22  75 NW6       30.42S WCI  23
ST CHARLES     CLEAR     32  21  64 N9        30.42S WCI  24

$$
MOZ072>076-082>087-097>100-106>115-011000-
...SOUTH CENTRAL AND SOUTHEAST MISSOURI...

CITY           SKY/WX    TMP DP  RH WIND       PRES   REMARKS
CAPE GIRARDEAU CLEAR     34  22  61 NW9       30.35S WCI  27
FARMINGTON     CLEAR     30  19  64 NW6       30.38S WCI  24
POPLAR BLUFF   CLEAR     31  21  66 NW7       30.37F WCI  24
WEST PLAINS    CLEAR     30  19  63 N8        30.39S WCI  22

$$



USA.gov is the U.S. government's official web portal to all federal, state and local government web resources and services.